FW6924 Weather Reports


time (UTC)temp
F
wind
direction
speed
knots
gust
knots
rain 1hr
in
rain 24hr
in
rain mn
in
humidity
%
barometer
mb
20260505121000 69 86 2.6 5.2 0.00 0.00 0.00 89 1013.5
20260505120006 68 118 2.6 6.1 0.00 0.00 0.00 90 1013.3
20260505115001 67 91 1.7 5.2 0.00 0.00 0.00 91 1013.1
20260505113000 65 93 0.9 3.5 0.00 0.00 0.00 93 1013.0
20260505112002 65 97 0.9 3.5 0.00 0.00 0.00 92 1012.8
20260505111001 65 88 0.9 2.6 0.00 0.00 0.00 92 1012.6
20260505101000 65 91 0.0 1.7 0.00 0.00 0.00 92 1012.3
20260505095002 65 100 0.0 0.0 0.00 0.00 0.00 91 1012.1
20260505094001 65 100 0.9 3.5 0.00 0.00 0.00 91 1012.0
20260505093003 66 101 0.0 2.6 0.00 0.00 0.00 91 1012.0
20260505092002 66 101 0.0 1.7 0.00 0.00 0.00 91 1012.0
20260505090004 66 104 1.7 3.5 0.00 0.00 0.00 91 1011.9
20260505084959 66 105 0.9 2.6 0.00 0.00 0.00 91 1011.8
20260505084001 66 94 0.0 1.7 0.00 0.00 0.00 90 1012.0
20260505083001 66 95 0.0 1.7 0.00 0.00 0.00 90 1012.0
20260505082001 67 95 0.0 1.7 0.00 0.00 0.00 90 1012.0
20260505080959 67 98 0.0 1.7 0.00 0.00 0.00 90 1012.1
20260505080005 67 97 0.0 2.6 0.00 0.00 0.00 90 1012.1
20260505074959 67 97 0.0 1.7 0.00 0.00 0.00 90 1012.0
20260505074002 67 99 0.0 1.7 0.00 0.00 0.00 89 1012.1
20260505072001 67 99 0.0 0.9 0.00 0.00 0.00 89 1012.1
20260505070959 67 99 0.0 1.7 0.00 0.00 0.00 89 1012.3
20260505070004 67 100 0.9 6.1 0.00 0.00 0.00 89 1012.3
20260505064959 67 102 0.9 2.6 0.00 0.00 0.00 89 1012.3
20260505062959 67 67 0.0 1.7 0.00 0.00 0.00 89 1012.7
20260505062001 67 65 0.9 2.6 0.00 0.00 0.00 88 1012.7
20260505060959 67 104 0.0 1.7 0.00 0.00 0.00 88 1012.5
20260505060005 68 105 0.0 0.9 0.00 0.00 0.00 88 1012.7
20260505054959 68 105 0.0 2.6 0.00 0.00 0.00 88 1012.9
20260505053959 68 107 0.0 0.9 0.00 0.00 0.00 88 1012.9
20260505052959 68 107 0.9 2.6 0.00 0.00 0.00 88 1013.1
20260505051959 68 109 0.9 2.6 0.00 0.00 0.00 87 1013.1
20260505051001 68 86 0.0 0.0 0.00 0.00 0.00 87 1013.3
20260505041003 70 109 1.7 5.2 0.00 0.00 0.00 85 1013.6
20260505040006 70 69 0.9 4.3 0.00 0.00 0.00 84 1013.6
20260505035001 70 106 1.7 6.1 0.00 0.00 0.00 84 1013.6
20260505034001 70 80 1.7 6.1 0.00 0.00 0.00 83 1013.6
20260505033001 71 101 0.9 7.0 0.00 0.00 0.00 83 1013.7
20260505031001 71 88 3.5 7.8 0.00 0.00 0.00 82 1013.6
20260505030005 72 72 3.5 7.0 0.00 0.00 0.00 81 1013.5
20260505025001 72 90 4.3 8.7 0.00 0.00 0.00 80 1013.5
20260505024003 72 116 4.3 7.8 0.00 0.00 0.00 80 1013.6
20260505023001 72 107 3.5 9.6 0.00 0.00 0.00 80 1013.6
20260505022003 73 94 1.7 7.8 0.00 0.00 0.00 80 1013.6
20260505021001 73 95 2.6 7.0 0.00 0.00 0.00 79 1013.5
20260505020005 73 89 3.5 7.0 0.00 0.00 0.00 79 1013.3
20260505014003 73 101 2.6 7.0 0.00 0.00 0.00 79 1013.2
20260505013001 74 105 2.6 7.8 0.00 0.00 0.00 78 1013.3
20260505012003 74 119 4.3 8.7 0.00 0.00 0.00 77 1013.0
20260505011001 74 121 4.3 7.0 0.00 0.00 0.00 77 1013.0
20260505010005 75 106 4.3 8.7 0.00 0.00 0.00 76 1013.0
20260505005001 75 89 5.2 9.6 0.00 0.00 0.00 75 1012.6
20260505002003 76 103 6.1 10.4 0.00 0.00 0.00 73 1012.1
20260504235001 77 111 3.5 7.8 0.00 0.00 0.00 72 1011.8
20260504233001 78 105 7.0 10.4 0.00 0.00 0.00 72 1011.7
20260504231001 80 94 8.7 15.6 0.00 0.00 0.00 68 1011.2
20260504225001 81 90 6.1 11.3 0.00 0.00 0.00 64 1011.4
20260504224003 81 113 7.0 11.3 0.00 0.00 0.00 64 1011.3
20260504223001 82 121 7.0 11.3 0.00 0.00 0.00 63 1011.3
20260504222003 82 83 7.0 12.2 0.00 0.00 0.00 62 1011.3
20260504221001 82 105 7.8 11.3 0.00 0.00 0.00 61 1011.2
20260504220005 83 79 6.1 12.2 0.00 0.00 0.00 62 1011.2
20260504215001 82 96 7.8 13.9 0.00 0.00 0.00 62 1011.1
20260504214003 82 98 8.7 13.9 0.00 0.00 0.00 62 1011.1
20260504213001 83 102 7.8 13.9 0.00 0.00 0.00 60 1011.1
20260504212003 84 78 6.1 14.8 0.00 0.00 0.00 59 1011.1
20260504211001 83 98 3.5 9.6 0.00 0.00 0.00 59 1011.4
20260504210005 83 61 7.0 13.0 0.00 0.00 0.00 58 1011.2
20260504205000 83 98 6.1 13.9 0.00 0.00 0.00 58 1011.4
20260504204003 84 98 7.0 13.0 0.00 0.00 0.00 57 1011.3
20260504203001 86 97 5.2 9.6 0.00 0.00 0.00 54 1011.2
20260504202003 86 98 6.1 11.3 0.00 0.00 0.00 53 1011.2
20260504201001 86 80 5.2 11.3 0.00 0.00 0.00 54 1011.3
20260504200006 87 44 5.2 12.2 0.00 0.00 0.00 54 1011.4
20260504195001 86 142 5.2 11.3 0.00 0.00 0.00 53 1011.6
20260504194003 85 90 5.2 11.3 0.00 0.00 0.00 53 1011.6
20260504193001 87 102 4.3 9.6 0.00 0.00 0.00 51 1011.7
20260504192003 86 101 4.3 10.4 0.00 0.00 0.00 52 1012.0
20260504191000 87 53 3.5 10.4 0.00 0.00 0.00 54 1012.2
20260504185001 84 105 4.3 9.6 0.00 0.01 0.00 54 1012.5
20260504184003 85 103 4.3 8.7 0.00 0.01 0.00 54 1012.6
20260504183001 85 84 3.5 9.6 0.00 0.01 0.00 55 1013.0
20260504182003 85 78 4.3 8.7 0.00 0.01 0.00 54 1013.0
20260504181001 84 110 3.5 9.6 0.00 0.01 0.00 54 1013.0
20260504180005 85 105 4.3 9.6 0.00 0.01 0.00 55 1013.4
20260504175001 84 103 4.3 9.6 0.00 0.01 0.00 53 1013.3
20260504174001 83 98 4.3 9.6 0.00 0.01 0.00 54 1013.3
20260504171000 83 78 4.3 12.2 0.00 0.01 0.00 56 1013.9
20260504151001 80 344 3.5 11.3 0.00 0.01 0.00 58 1014.8
20260504141001 75 105 2.6 7.8 0.00 0.01 0.00 74 1014.7